Weather Roundup
Issued by NWS Chicago, IL

Home | Current Version | Previous Version | Graphics & Text | Print | Product List | Glossary On
Versions: 1 2 3 4 5 6 7 8 9 10 11 12 13 14 15 16 17 18 19 20 21 22 23 24 25 26 27 28 29 30 31 32 33 34 35 36 37 38 39 40 41 42 43 44 45 46 47 48 49 50
000
NZUS59 KLOT 040921
HRRLOT

CHICAGO AREA WEATHER ROUNDUP
NATIONAL WEATHER SERVICE CHICAGO/ROMEOVILLE IL
400 AM CDT SAT JUL 04 2015

NOTE: "FAIR" INDICATES FEW OR NO CLOUDS BELOW 12,000 FEET WITH NO
SIGNIFICANT WEATHER AND/OR OBSTRUCTIONS TO VISIBILITY.

* THESE STATIONS ARE NOT UNDER NWS QUALITY CONTROL. THEY ALSO MAY NOT
  REPORT WEATHER SUCH AS PRECIPITATION OR FOG.

ILZ005-006-012>014-019>023-041000-
NORTHEAST ILLINOIS

CITY           SKY/WX    TMP DP  RH WIND       PRES   REMARKS
OHARE          CLEAR     61  54  77 W3        29.95S
MIDWAY         CLEAR     63  56  78 CALM      29.96R
AURORA         CLEAR     57  54  89 CALM      29.97R FOG
LANSING*       CLEAR     57  54  91 CALM      29.96R FOG
JOLIET*        CLEAR     58  57  97 CALM      29.97R FOG
WAUKEGAN       CLEAR     57  53  86 CALM      29.95R
DUPAGE AIRPORT CLEAR     58  54  86 CALM      29.96S
WHEELING       CLEAR     59  54  83 CALM      29.96F
KANKAKEE*      CLEAR     58  58  97 CALM      29.97R FOG
MORRIS*        CLEAR     61  56  85 CALM      29.93R
LEWIS AIRPORT* CLEAR     59  56  91 CALM      29.97R FOG
NORTHERLY IS     N/A     66  53  63 SW8         N/A
$$

WIZ051-052-058>065-066-070>072-041000-
SOUTHEAST WISCONSIN

CITY           SKY/WX    TMP DP  RH WIND       PRES   REMARKS
MILWAUKEE      PTCLDY    61  55  81 SW6       29.95R
KENOSHA*       CLEAR     54  52  93 SW3       29.95S
RACINE*        CLEAR     61  53  75 W6        29.96S
BURLINGTON     CLEAR     50  50  99 CALM      29.96R FOG
WAUKESHA       CLEAR     54  52  94 CALM      29.96S
WEST BEND      CLEAR     54  50  87 CALM      29.94F
$$

INZ001>003-010>013-019-020-041000-
NORTHWEST INDIANA

CITY           SKY/WX    TMP DP  RH WIND       PRES   REMARKS
GARY*          PTCLDY   N/A N/A N/A CALM      29.96R FOG
MICHIGAN CITY* NOT AVBL
RENSSELAER*    NOT AVBL
VALPARAISO     CLEAR     56  54  93 CALM      29.96S
$$

LMZ740>746-041000-
SOUTHERN LAKE MICHIGAN

STATION/POSITION TIME  SKY/WX   TEMP WIND        PRES    VSBY
                                AIR  DIR/SP/G
                 (UTC)          (F)  (DEG/KT/KT) (MB)    (MI)
HARRISON CRIB    0900            65  260/  7/  8   N/A
BURNHAM HARBOR   0900            66  260/  7       N/A
CALUMET HARBOR   0800            62   CALM  /  1   N/A
BURNS HARBOR     0800            62  210/  2/  4 1014.9S
MICHIGAN CITY    0800            59  200/  4/  4   N/A
$$

ABBREVIATIONS USED IN REMARKS
   TC - TEMPERATURE IN CELSIUS
  WCI - WIND CHILL INDEX
   HX - HEAT INDEX
  VSB - VISIBILITY
$$



USA.gov is the U.S. government's official web portal to all federal, state and local government web resources and services.